Powrót do katalogu

CZ-4C R/B

AktywnyPO
NORAD 49123·ROCKET BODY·🇨🇳 China

Wystrzelony Sep 7, 2021 z Taiyuan Satellite Launch Center

Loading…

Następne Przeloty (najbliższe 24 godziny)

TLE

ŚwieżeSource: Space-Track

Epoka: Sep 14, 2026, 13:51 UTC

1 49123U 21079B   26257.57757621  .00001986  00000-0  11179-3 0  9996
2 49123  98.3597 128.9370 0106915 111.0778 250.1920 15.09881473274917

Śledź CZ-4C R/B w czasie rzeczywistym z AllMySat

Download on the App Store